VK2EHQ Weather Reports


time (UTC)temp
C
wind
direction
speed
KPH
gust
KPH
rain 1hr
cm
rain 24hr
cm
rain mn
cm
humidity
%
barometer
mb
20260503173335 16 356 1.6 3.2 0.00 0.00 0.00 82 1016.6
20260503172335 15 303 1.6 3.2 0.00 0.00 0.00 82 1016.8
20260503171335 15 303 0.0 0.0 0.00 0.00 0.00 82 1016.7
20260503170335 16 303 0.0 0.0 0.00 0.00 0.00 82 1016.8
20260503150334 16 63 3.2 3.2 0.00 0.00 0.00 81 1017.7
20260503131334 17 96 4.8 4.8 0.00 0.00 0.00 81 1018.5
20260503130333 17 80 3.2 4.8 0.00 0.00 0.00 81 1018.7
20260503110332 18 97 8.0 9.7 0.00 0.00 0.00 81 1019.2
20260503090331 18 58 3.2 4.8 0.00 0.00 0.00 80 1019.0
20260503081331 19 91 4.8 8.0 0.00 0.00 0.00 78 1018.8
20260503080332 19 114 3.2 4.8 0.00 0.00 0.00 77 1018.8
20260503072331 20 125 3.2 4.8 0.00 0.00 0.00 75 1018.7
20260503071333 20 93 3.2 4.8 0.00 0.00 0.00 74 1018.7
20260503070331 20 69 1.6 4.8 0.00 0.00 0.00 73 1018.7
20260503060331 22 149 9.7 11.3 0.00 0.00 0.00 67 1019.0
20260503053331 22 77 3.2 4.8 0.00 0.00 0.00 62 1019.1
20260503051330 23 82 4.8 4.8 0.00 0.00 0.00 60 1019.2
20260503050331 23 62 4.8 11.3 0.00 0.00 0.00 59 1019.2
20260503045330 23 51 4.8 8.0 0.00 0.00 0.00 59 1019.3
20260503043330 23 45 3.2 8.0 0.00 0.00 0.00 59 1019.4
20260503041330 23 77 8.0 9.7 0.00 0.00 0.00 60 1019.6
20260503040329 23 78 1.6 4.8 0.00 0.00 0.00 60 1019.6
20260503035329 23 121 3.2 8.0 0.00 0.00 0.00 62 1019.7
20260503034329 23 97 3.2 4.8 0.00 0.00 0.00 61 1019.8
20260503033332 23 69 8.0 9.7 0.00 0.00 0.00 60 1020.0
20260503032330 23 125 4.8 11.3 0.00 0.00 0.00 61 1020.1
20260503031330 23 23 8.0 9.7 0.00 0.00 0.00 62 1020.2
20260503030332 23 57 3.2 8.0 0.00 0.00 0.00 63 1020.4
20260503025332 22 60 3.2 4.8 0.00 0.00 0.00 63 1020.5
20260503024330 22 101 8.0 8.0 0.00 0.00 0.00 64 1020.5
20260503023329 22 68 4.8 11.3 0.00 0.00 0.00 64 1020.8
20260503022331 23 102 8.0 14.5 0.00 0.00 0.00 63 1020.9
20260503020328 23 109 11.3 12.9 0.00 0.00 0.00 64 1021.3
20260503015328 22 98 8.0 12.9 0.00 0.00 0.00 65 1021.6
20260503014328 22 48 9.7 12.9 0.00 0.00 0.00 65 1021.5
20260503013328 22 55 9.7 12.9 0.00 0.00 0.00 65 1021.7
20260503012328 22 54 4.8 9.7 0.00 0.00 0.00 65 1021.7
20260503011328 22 52 8.0 11.3 0.00 0.00 0.00 65 1022.0
20260503010328 22 48 8.0 11.3 0.00 0.00 0.00 66 1022.2
20260503004328 22 69 8.0 12.9 0.00 0.00 0.00 67 1022.6
20260503003328 21 53 4.8 4.8 0.00 0.00 0.00 67 1022.7
20260503002328 21 47 9.7 9.7 0.00 0.00 0.00 68 1022.7
20260503001327 21 41 8.0 9.7 0.00 0.00 0.00 69 1022.7
20260503000328 21 73 8.0 12.9 0.00 0.00 0.00 68 1022.7
20260502235330 21 60 4.8 4.8 0.00 0.00 0.00 70 1022.9
20260502234327 20 24 8.0 11.3 0.00 0.00 0.00 69 1022.9
20260502233327 20 42 4.8 8.0 0.00 0.00 0.00 70 1022.9
20260502232327 20 39 4.8 3.2 0.00 0.00 0.00 71 1022.9
20260502231328 20 51 3.2 4.8 0.00 0.00 0.00 73 1023.0
20260502230327 20 73 8.0 9.7 0.00 0.00 0.00 76 1023.0
20260502225328 19 123 3.2 3.2 0.00 0.00 0.00 78 1023.1
20260502224327 18 57 4.8 4.8 0.00 0.00 0.00 80 1023.1
20260502223327 18 75 3.2 4.8 0.00 0.00 0.00 81 1023.0
20260502222327 17 95 8.0 8.0 0.00 0.00 0.00 81 1023.1
20260502221327 17 56 8.0 9.7 0.00 0.00 0.00 82 1023.0
20260502220327 17 56 4.8 8.0 0.00 0.00 0.00 82 1023.0
20260502215327 16 76 4.8 9.7 0.00 0.00 0.00 82 1022.9
20260502214326 16 53 3.2 4.8 0.00 0.00 0.00 82 1022.7
20260502213326 16 94 3.2 4.8 0.00 0.00 0.00 82 1022.4
20260502212326 16 126 3.2 4.8 0.00 0.00 0.00 82 1022.7
20260502211326 15 10 1.6 3.2 0.00 0.00 0.00 82 1022.7
20260502210326 15 10 0.0 0.0 0.00 0.00 0.00 82 1022.9
20260502205326 15 10 0.0 0.0 0.00 0.00 0.00 82 1022.7
20260502204326 15 332 0.0 0.0 0.00 0.00 0.00 82 1022.6
20260502203326 15 332 0.0 0.0 0.00 0.00 0.00 81 1022.6
20260502202326 16 332 3.2 4.8 0.00 0.00 0.00 82 1022.7
20260502201326 16 53 0.0 1.6 0.00 0.00 0.00 81 1022.7
20260502200326 16 58 0.0 0.0 0.00 0.00 0.00 81 1022.3
20260502195330 16 35 1.6 1.6 0.00 0.00 0.00 82 1022.3
20260502194325 16 52 3.2 4.8 0.00 0.00 0.00 82 1022.2
20260502193325 16 97 3.2 4.8 0.00 0.00 0.00 82 1022.1
20260502192325 16 71 3.2 4.8 0.00 0.00 0.00 82 1022.0
20260502191326 16 86 3.2 8.0 0.00 0.00 0.00 82 1021.9
20260502190325 16 88 1.6 3.2 0.00 0.00 0.00 82 1021.9
20260502185329 16 87 4.8 8.0 0.00 0.00 0.00 82 1021.8
20260502184325 16 99 3.2 4.8 0.00 0.00 0.00 82 1022.1
20260502183325 16 82 3.2 3.2 0.00 0.00 0.00 81 1022.2
20260502182325 16 97 1.6 4.8 0.00 0.00 0.00 81 1022.1
20260502181325 16 63 1.6 4.8 0.00 0.00 0.00 82 1022.2
20260502180325 16 91 3.2 4.8 0.00 0.00 0.00 82 1022.2